contact:dominique.lefevre@mio.osupytheas.fr, maurice.libes@osupytheas.fr, didier.mallarino@osupytheas.fr
Project:EMSO http://www.emso-fr.org/EMSO-France
Depth: 2436.0 m
Title:EMSO Ligure Ouest : Data MII capteur CSTAR
DateTime,Latitude,Longitude,Instrument_Serial,Reference_Counts,Signal_Counts,Corrected_Signal_raw_counts,Calculated_Beam_c_inverse_meters,Internal_thermistor_counts
DateTime,Latitude,Longitude,Instrument_Serial,Reference_Counts,Signal_Counts,Corrected_Signal_raw_counts,Calculated_Beam_c_inverse_meters,Internal_thermistor_counts
2020-05-08T00:01:02,42.805,6.029,CST-1368DR,6357,8912,15176,0.114,551
2020-05-08T00:04:04,42.805,6.029,CST-1368DR,6357,8911,15175,0.115,551
2020-05-08T00:07:05,42.805,6.029,CST-1368DR,6357,8911,15175,0.115,551
2020-05-08T00:10:07,42.805,6.029,CST-1368DR,6357,8911,15175,0.115,551
2020-05-08T00:13:09,42.805,6.029,CST-1368DR,6357,8911,15174,0.115,551
2020-05-08T00:16:10,42.805,6.029,CST-1368DR,6357,8911,15174,0.115,550
2020-05-08T00:19:12,42.805,6.029,CST-1368DR,6357,8911,15175,0.115,551
2020-05-08T00:22:14,42.805,6.029,CST-1368DR,6357,8911,15175,0.115,551
2020-05-08T00:25:15,42.805,6.029,CST-1368DR,6357,8911,15174,0.115,551
2020-05-08T00:28:17,42.805,6.029,CST-1368DR,6357,8912,15176,0.114,551
2020-05-08T00:31:19,42.805,6.029,CST-1368DR,6357,8911,15174,0.115,551
2020-05-08T00:34:21,42.805,6.029,CST-1368DR,6357,8911,15175,0.115,551
2020-05-08T00:37:23,42.805,6.029,CST-1368DR,6357,8911,15175,0.115,551
2020-05-08T00:40:24,42.805,6.029,CST-1368DR,6357,8911,15175,0.115,551
2020-05-08T00:43:26,42.805,6.029,CST-1368DR,6357,8911,15175,0.115,551
2020-05-08T00:46:28,42.805,6.029,CST-1368DR,6357,8910,15173,0.115,551
2020-05-08T00:49:29,42.805,6.029,CST-1368DR,6357,8911,15174,0.115,551
2020-05-08T00:52:31,42.805,6.029,CST-1368DR,6357,8911,15174,0.115,551
2020-05-08T00:55:33,42.805,6.029,CST-1368DR,6357,8911,15175,0.115,551
2020-05-08T00:58:34,42.805,6.029,CST-1368DR,6357,8910,15172,0.115,551
2020-05-08T01:01:36,42.805,6.029,CST-1368DR,6357,8911,15174,0.115,551
2020-05-08T01:04:38,42.805,6.029,CST-1368DR,6357,8910,15172,0.115,551
2020-05-08T01:07:39,42.805,6.029,CST-1368DR,6356,8910,15175,0.115,551
2020-05-08T01:10:41,42.805,6.029,CST-1368DR,6357,8911,15174,0.115,551
2020-05-08T01:13:43,42.805,6.029,CST-1368DR,6357,8909,15171,0.116,551
2020-05-08T01:16:45,42.805,6.029,CST-1368DR,6357,8911,15174,0.115,551
2020-05-08T01:19:47,42.805,6.029,CST-1368DR,6356,8910,15175,0.115,551
2020-05-08T01:22:48,42.805,6.029,CST-1368DR,6357,8911,15174,0.115,551
2020-05-08T01:25:50,42.805,6.029,CST-1368DR,6356,8911,15177,0.114,551
2020-05-08T01:28:52,42.805,6.029,CST-1368DR,6356,8910,15175,0.115,550
2020-05-08T01:31:53,42.805,6.029,CST-1368DR,6357,8911,15174,0.115,551
2020-05-08T01:34:55,42.805,6.029,CST-1368DR,6356,8911,15176,0.114,551
2020-05-08T01:37:57,42.805,6.029,CST-1368DR,6357,8911,15174,0.115,551
2020-05-08T01:40:59,42.805,6.029,CST-1368DR,6357,8911,15174,0.115,551
2020-05-08T01:44:00,42.805,6.029,CST-1368DR,6357,8911,15174,0.115,551
2020-05-08T01:47:02,42.805,6.029,CST-1368DR,6356,8910,15175,0.115,551
2020-05-08T01:50:04,42.805,6.029,CST-1368DR,6356,8911,15176,0.114,551
2020-05-08T01:53:06,42.805,6.029,CST-1368DR,6356,8911,15176,0.114,551
2020-05-08T01:56:07,42.805,6.029,CST-1368DR,6357,8911,15174,0.115,551
2020-05-08T01:59:09,42.805,6.029,CST-1368DR,6356,8911,15176,0.114,551
2020-05-08T02:02:11,42.805,6.029,CST-1368DR,6356,8911,15178,0.114,551
2020-05-08T02:05:12,42.805,6.029,CST-1368DR,6356,8910,15175,0.115,551
2020-05-08T02:08:14,42.805,6.029,CST-1368DR,6356,8911,15177,0.114,551
2020-05-08T02:11:16,42.805,6.029,CST-1368DR,6356,8911,15176,0.114,551
2020-05-08T02:14:17,42.805,6.029,CST-1368DR,6357,8911,15174,0.115,551
2020-05-08T02:17:19,42.805,6.029,CST-1368DR,6356,8910,15176,0.114,551
2020-05-08T02:20:21,42.805,6.029,CST-1368DR,6356,8911,15176,0.114,551
2020-05-08T02:23:22,42.805,6.029,CST-1368DR,6356,8910,15176,0.114,551
2020-05-08T02:26:24,42.805,6.029,CST-1368DR,6356,8910,15176,0.114,551
2020-05-08T02:29:26,42.805,6.029,CST-1368DR,6356,8910,15175,0.115,551
2020-05-08T02:32:28,42.805,6.029,CST-1368DR,6356,8910,15175,0.115,551
2020-05-08T02:35:29,42.805,6.029,CST-1368DR,6356,8911,15176,0.114,551
2020-05-08T02:38:31,42.805,6.029,CST-1368DR,6356,8910,15175,0.115,551
2020-05-08T02:41:33,42.805,6.029,CST-1368DR,6356,8910,15175,0.115,551
2020-05-08T02:44:35,42.805,6.029,CST-1368DR,6356,8910,15175,0.115,551
2020-05-08T02:47:36,42.805,6.029,CST-1368DR,6356,8911,15177,0.114,551
2020-05-08T02:50:38,42.805,6.029,CST-1368DR,6356,8908,15172,0.115,551
2020-05-08T02:53:40,42.805,6.029,CST-1368DR,6356,8910,15175,0.115,551
2020-05-08T02:56:41,42.805,6.029,CST-1368DR,6356,8910,15175,0.115,551
2020-05-08T02:59:43,42.805,6.029,CST-1368DR,6356,8910,15175,0.115,551
2020-05-08T03:02:45,42.805,6.029,CST-1368DR,6356,8910,15175,0.115,551
2020-05-08T03:05:46,42.805,6.029,CST-1368DR,6356,8909,15173,0.115,551
2020-05-08T03:08:48,42.805,6.029,CST-1368DR,6356,8908,15172,0.115,551
2020-05-08T03:11:50,42.805,6.029,CST-1368DR,6356,8909,15173,0.115,551
2020-05-08T03:14:52,42.805,6.029,CST-1368DR,6356,8909,15173,0.115,551
2020-05-08T03:17:53,42.805,6.029,CST-1368DR,6356,8909,15173,0.115,551
2020-05-08T03:20:55,42.805,6.029,CST-1368DR,6356,8910,15175,0.115,551
2020-05-08T03:23:57,42.805,6.029,CST-1368DR,6356,8910,15175,0.115,551
2020-05-08T03:26:58,42.805,6.029,CST-1368DR,6356,8910,15175,0.115,551
2020-05-08T03:30:00,42.805,6.029,CST-1368DR,6356,8910,15175,0.115,551
2020-05-08T03:33:02,42.805,6.029,CST-1368DR,6356,8910,15175,0.115,551
2020-05-08T03:36:04,42.805,6.029,CST-1368DR,6356,8910,15176,0.114,551
2020-05-08T03:39:05,42.805,6.029,CST-1368DR,6356,8909,15173,0.115,551
2020-05-08T03:42:07,42.805,6.029,CST-1368DR,6356,8908,15172,0.115,551
2020-05-08T03:45:09,42.805,6.029,CST-1368DR,6356,8910,15176,0.114,551
2020-05-08T03:48:10,42.805,6.029,CST-1368DR,6356,8909,15174,0.115,551
2020-05-08T03:51:12,42.805,6.029,CST-1368DR,6356,8910,15175,0.115,551
2020-05-08T03:54:14,42.805,6.029,CST-1368DR,6356,8909,15173,0.115,551
2020-05-08T03:57:16,42.805,6.029,CST-1368DR,6356,8908,15172,0.115,551
2020-05-08T04:00:17,42.805,6.029,CST-1368DR,6356,8910,15175,0.115,551
2020-05-08T04:03:19,42.805,6.029,CST-1368DR,6356,8910,15175,0.115,551
2020-05-08T04:06:21,42.805,6.029,CST-1368DR,6356,8907,15171,0.116,551
2020-05-08T04:09:22,42.805,6.029,CST-1368DR,6356,8910,15175,0.115,551
2020-05-08T04:12:24,42.805,6.029,CST-1368DR,6356,8909,15173,0.115,551
2020-05-08T04:15:26,42.805,6.029,CST-1368DR,6356,8910,15175,0.115,551
2020-05-08T04:18:28,42.805,6.029,CST-1368DR,6356,8910,15175,0.115,551
2020-05-08T04:21:29,42.805,6.029,CST-1368DR,6356,8910,15175,0.115,551
2020-05-08T04:24:31,42.805,6.029,CST-1368DR,6356,8909,15173,0.115,551
2020-05-08T04:27:33,42.805,6.029,CST-1368DR,6356,8909,15174,0.115,551
2020-05-08T04:30:34,42.805,6.029,CST-1368DR,6356,8908,15172,0.115,551
2020-05-08T04:33:36,42.805,6.029,CST-1368DR,6356,8909,15173,0.115,551
2020-05-08T04:36:38,42.805,6.029,CST-1368DR,6356,8909,15174,0.115,551
2020-05-08T04:39:39,42.805,6.029,CST-1368DR,6356,8909,15173,0.115,551
2020-05-08T04:42:41,42.805,6.029,CST-1368DR,6356,8908,15172,0.115,551
2020-05-08T04:45:43,42.805,6.029,CST-1368DR,6356,8909,15174,0.115,551
2020-05-08T04:48:45,42.805,6.029,CST-1368DR,6356,8909,15173,0.115,551
2020-05-08T04:51:46,42.805,6.029,CST-1368DR,6356,8909,15174,0.115,551
2020-05-08T04:54:48,42.805,6.029,CST-1368DR,6356,8909,15174,0.115,551
2020-05-08T04:57:50,42.805,6.029,CST-1368DR,6356,8908,15171,0.116,551
2020-05-08T05:00:51,42.805,6.029,CST-1368DR,6356,8909,15173,0.115,550
2020-05-08T05:03:53,42.805,6.029,CST-1368DR,6356,8909,15173,0.115,551
2020-05-08T05:06:55,42.805,6.029,CST-1368DR,6356,8910,15175,0.115,551
2020-05-08T05:09:57,42.805,6.029,CST-1368DR,6356,8908,15172,0.115,551
2020-05-08T05:12:58,42.805,6.029,CST-1368DR,6356,8909,15174,0.115,551
2020-05-08T05:16:00,42.805,6.029,CST-1368DR,6356,8909,15173,0.115,551
2020-05-08T05:19:02,42.805,6.029,CST-1368DR,6356,8909,15173,0.115,551
2020-05-08T05:22:04,42.805,6.029,CST-1368DR,6356,8908,15172,0.115,551
2020-05-08T05:25:05,42.805,6.029,CST-1368DR,6356,8909,15174,0.115,551
2020-05-08T05:28:07,42.805,6.029,CST-1368DR,6356,8908,15172,0.115,551
2020-05-08T05:31:09,42.805,6.029,CST-1368DR,6356,8909,15174,0.115,551
2020-05-08T05:34:10,42.805,6.029,CST-1368DR,6356,8909,15174,0.115,551
2020-05-08T05:37:12,42.805,6.029,CST-1368DR,6356,8909,15173,0.115,551
2020-05-08T05:40:14,42.805,6.029,CST-1368DR,6356,8907,15170,0.116,551
2020-05-08T05:43:15,42.805,6.029,CST-1368DR,6356,8908,15172,0.115,551
2020-05-08T05:46:17,42.805,6.029,CST-1368DR,6356,8905,15166,0.117,551
2020-05-08T05:49:19,42.805,6.029,CST-1368DR,6356,8908,15172,0.115,551
2020-05-08T05:52:21,42.805,6.029,CST-1368DR,6356,8909,15173,0.115,551
2020-05-08T05:55:22,42.805,6.029,CST-1368DR,6356,8909,15173,0.115,551
2020-05-08T05:58:24,42.805,6.029,CST-1368DR,6356,8909,15173,0.115,551
2020-05-08T06:01:26,42.805,6.029,CST-1368DR,6356,8909,15173,0.115,551
2020-05-08T06:04:27,42.805,6.029,CST-1368DR,6356,8909,15174,0.115,551
2020-05-08T06:07:29,42.805,6.029,CST-1368DR,6356,8909,15174,0.115,551
2020-05-08T06:10:31,42.805,6.029,CST-1368DR,6356,8909,15173,0.115,551
2020-05-08T06:13:33,42.805,6.029,CST-1368DR,6356,8909,15173,0.115,551
2020-05-08T06:16:34,42.805,6.029,CST-1368DR,6356,8908,15172,0.115,551
2020-05-08T06:19:36,42.805,6.029,CST-1368DR,6356,8908,15171,0.116,551
2020-05-08T06:22:38,42.805,6.029,CST-1368DR,6356,8909,15174,0.115,551
2020-05-08T06:25:39,42.805,6.029,CST-1368DR,6356,8908,15171,0.116,551
2020-05-08T06:28:41,42.805,6.029,CST-1368DR,6356,8909,15173,0.115,551
2020-05-08T06:31:43,42.805,6.029,CST-1368DR,6356,8907,15171,0.116,550
2020-05-08T06:34:44,42.805,6.029,CST-1368DR,6356,8908,15172,0.115,551
2020-05-08T06:37:46,42.805,6.029,CST-1368DR,6356,8908,15172,0.115,551
2020-05-08T06:40:48,42.805,6.029,CST-1368DR,6356,8910,15175,0.115,551
2020-05-08T06:43:49,42.805,6.029,CST-1368DR,6356,8909,15174,0.115,551
2020-05-08T06:46:51,42.805,6.029,CST-1368DR,6356,8910,15175,0.115,551
2020-05-08T06:49:53,42.805,6.029,CST-1368DR,6355,8908,15174,0.115,551
2020-05-08T06:52:54,42.805,6.029,CST-1368DR,6355,8908,15175,0.115,551
2020-05-08T06:55:56,42.805,6.029,CST-1368DR,6355,8908,15174,0.115,551
2020-05-08T06:58:58,42.805,6.029,CST-1368DR,6356,8908,15172,0.115,551
2020-05-08T07:02:00,42.805,6.029,CST-1368DR,6355,8909,15175,0.115,551
2020-05-08T07:05:01,42.805,6.029,CST-1368DR,6356,8909,15173,0.115,551
2020-05-08T07:08:03,42.805,6.029,CST-1368DR,6356,8908,15171,0.116,551
2020-05-08T07:11:05,42.805,6.029,CST-1368DR,6356,8908,15172,0.115,551
2020-05-08T07:14:06,42.805,6.029,CST-1368DR,6356,8908,15172,0.115,551
2020-05-08T07:17:08,42.805,6.029,CST-1368DR,6356,8909,15173,0.115,551
2020-05-08T07:20:10,42.805,6.029,CST-1368DR,6356,8908,15172,0.115,551
2020-05-08T07:23:11,42.805,6.029,CST-1368DR,6355,8908,15174,0.115,551
2020-05-08T07:26:13,42.805,6.029,CST-1368DR,6355,8908,15174,0.115,551
2020-05-08T07:29:15,42.805,6.029,CST-1368DR,6355,8909,15175,0.115,551
2020-05-08T07:32:17,42.805,6.029,CST-1368DR,6355,8908,15174,0.115,551
2020-05-08T07:35:18,42.805,6.029,CST-1368DR,6355,8908,15174,0.115,551
2020-05-08T07:38:20,42.805,6.029,CST-1368DR,6355,8908,15174,0.115,551
2020-05-08T07:41:22,42.805,6.029,CST-1368DR,6355,8908,15173,0.115,551
2020-05-08T07:44:23,42.805,6.029,CST-1368DR,6355,8907,15173,0.115,551
2020-05-08T07:47:25,42.805,6.029,CST-1368DR,6355,8908,15173,0.115,551
2020-05-08T07:50:27,42.805,6.029,CST-1368DR,6355,8908,15173,0.115,551
2020-05-08T07:53:28,42.805,6.029,CST-1368DR,6355,8907,15173,0.115,551
2020-05-08T07:56:30,42.805,6.029,CST-1368DR,6355,8908,15175,0.115,551
2020-05-08T07:59:32,42.805,6.029,CST-1368DR,6355,8908,15175,0.115,551
2020-05-08T08:02:33,42.805,6.029,CST-1368DR,6355,8908,15175,0.115,551
2020-05-08T08:05:35,42.805,6.029,CST-1368DR,6355,8908,15173,0.115,551
2020-05-08T08:08:37,42.805,6.029,CST-1368DR,6355,8907,15173,0.115,551
2020-05-08T08:11:39,42.805,6.029,CST-1368DR,6355,8908,15174,0.115,551
2020-05-08T08:14:40,42.805,6.029,CST-1368DR,6355,8908,15175,0.115,551
2020-05-08T08:17:42,42.805,6.029,CST-1368DR,6355,8908,15174,0.115,551
2020-05-08T08:20:44,42.805,6.029,CST-1368DR,6355,8909,15175,0.115,551
2020-05-08T08:23:45,42.805,6.029,CST-1368DR,6355,8908,15175,0.115,551
2020-05-08T08:26:47,42.805,6.029,CST-1368DR,6355,8909,15176,0.114,551
2020-05-08T08:29:49,42.805,6.029,CST-1368DR,6355,8908,15175,0.115,551
2020-05-08T08:32:51,42.805,6.029,CST-1368DR,6355,8907,15173,0.115,551
2020-05-08T08:35:52,42.805,6.029,CST-1368DR,6355,8908,15174,0.115,551
2020-05-08T08:38:54,42.805,6.029,CST-1368DR,6355,8906,15170,0.116,551
2020-05-08T08:41:56,42.805,6.029,CST-1368DR,6355,8908,15174,0.115,551
2020-05-08T08:44:58,42.805,6.029,CST-1368DR,6355,8909,15175,0.115,551
2020-05-08T08:47:59,42.805,6.029,CST-1368DR,6355,8908,15175,0.115,551
2020-05-08T08:51:01,42.805,6.029,CST-1368DR,6355,8908,15174,0.115,551
2020-05-08T08:54:03,42.805,6.029,CST-1368DR,6355,8908,15174,0.115,551
2020-05-08T08:57:04,42.805,6.029,CST-1368DR,6355,8908,15174,0.115,551
2020-05-08T09:00:06,42.805,6.029,CST-1368DR,6355,8907,15173,0.115,551
2020-05-08T09:03:08,42.805,6.029,CST-1368DR,6355,8908,15175,0.115,551
2020-05-08T09:06:09,42.805,6.029,CST-1368DR,6355,8908,15174,0.115,551
2020-05-08T09:09:11,42.805,6.029,CST-1368DR,6355,8909,15175,0.115,551
2020-05-08T09:12:13,42.805,6.029,CST-1368DR,6355,8908,15173,0.115,551
2020-05-08T09:15:14,42.805,6.029,CST-1368DR,6355,8909,15175,0.115,551
2020-05-08T09:18:16,42.805,6.029,CST-1368DR,6355,8907,15173,0.115,551
2020-05-08T09:21:18,42.805,6.029,CST-1368DR,6355,8908,15174,0.115,551
2020-05-08T09:24:20,42.805,6.029,CST-1368DR,6355,8908,15174,0.115,551
2020-05-08T09:27:21,42.805,6.029,CST-1368DR,6355,8908,15174,0.115,551
2020-05-08T09:30:23,42.805,6.029,CST-1368DR,6355,8907,15173,0.115,551
2020-05-08T09:33:25,42.805,6.029,CST-1368DR,6355,8909,15175,0.115,551
2020-05-08T09:36:26,42.805,6.029,CST-1368DR,6355,8907,15173,0.115,551
2020-05-08T09:39:28,42.805,6.029,CST-1368DR,6355,8908,15174,0.115,551
2020-05-08T09:42:30,42.805,6.029,CST-1368DR,6355,8908,15174,0.115,551
2020-05-08T09:45:32,42.805,6.029,CST-1368DR,6355,8909,15175,0.115,551
2020-05-08T09:48:33,42.805,6.029,CST-1368DR,6355,8907,15172,0.115,551
2020-05-08T09:51:35,42.805,6.029,CST-1368DR,6355,8908,15174,0.115,551
2020-05-08T09:54:37,42.805,6.029,CST-1368DR,6355,8907,15173,0.115,550
2020-05-08T09:57:38,42.805,6.029,CST-1368DR,6355,8908,15175,0.115,551
2020-05-08T10:00:40,42.805,6.029,CST-1368DR,6355,8904,15167,0.117,551
2020-05-08T10:03:42,42.805,6.029,CST-1368DR,6355,8909,15175,0.115,550
2020-05-08T10:06:43,42.805,6.029,CST-1368DR,6355,8907,15172,0.115,551
2020-05-08T10:09:45,42.805,6.029,CST-1368DR,6355,8908,15175,0.115,551
2020-05-08T10:12:47,42.805,6.029,CST-1368DR,6355,8910,15177,0.114,551
2020-05-08T10:15:49,42.805,6.029,CST-1368DR,6355,8909,15176,0.114,551
2020-05-08T10:18:50,42.805,6.029,CST-1368DR,6355,8908,15174,0.115,551
2020-05-08T10:21:52,42.805,6.029,CST-1368DR,6355,8909,15175,0.115,551
2020-05-08T10:24:54,42.805,6.029,CST-1368DR,6355,8909,15175,0.115,551
2020-05-08T10:27:55,42.805,6.029,CST-1368DR,6355,8906,15171,0.116,551
2020-05-08T10:30:57,42.805,6.029,CST-1368DR,6355,8909,15176,0.114,551
2020-05-08T10:33:59,42.805,6.029,CST-1368DR,6355,8908,15174,0.115,551
2020-05-08T10:37:00,42.805,6.029,CST-1368DR,6355,8908,15174,0.115,551
2020-05-08T10:40:02,42.805,6.029,CST-1368DR,6355,8909,15175,0.115,551
2020-05-08T10:43:04,42.805,6.029,CST-1368DR,6355,8908,15173,0.115,551
2020-05-08T10:46:05,42.805,6.029,CST-1368DR,6355,8909,15175,0.115,551
2020-05-08T10:49:07,42.805,6.029,CST-1368DR,6355,8908,15175,0.115,551
2020-05-08T10:52:09,42.805,6.029,CST-1368DR,6355,8909,15175,0.115,551
2020-05-08T10:55:11,42.805,6.029,CST-1368DR,6355,8909,15176,0.114,551
2020-05-08T10:58:12,42.805,6.029,CST-1368DR,6355,8909,15176,0.114,550
2020-05-08T11:01:14,42.805,6.029,CST-1368DR,6355,8909,15176,0.114,551
2020-05-08T11:04:16,42.805,6.029,CST-1368DR,6355,8908,15174,0.115,551
2020-05-08T11:07:17,42.805,6.029,CST-1368DR,6355,8908,15174,0.115,551
2020-05-08T11:10:19,42.805,6.029,CST-1368DR,6355,8908,15174,0.115,551
2020-05-08T11:13:21,42.805,6.029,CST-1368DR,6355,8908,15175,0.115,551
2020-05-08T11:16:22,42.805,6.029,CST-1368DR,6355,8908,15174,0.115,551
2020-05-08T11:19:24,42.805,6.029,CST-1368DR,6355,8909,15175,0.115,550
2020-05-08T11:22:26,42.805,6.029,CST-1368DR,6355,8909,15175,0.115,551
2020-05-08T11:25:28,42.805,6.029,CST-1368DR,6355,8908,15175,0.115,551
2020-05-08T11:28:29,42.805,6.029,CST-1368DR,6355,8909,15175,0.115,551
2020-05-08T11:31:31,42.805,6.029,CST-1368DR,6355,8908,15173,0.115,551
2020-05-08T11:34:33,42.805,6.029,CST-1368DR,6355,8908,15174,0.115,551
2020-05-08T11:37:34,42.805,6.029,CST-1368DR,6355,8909,15175,0.115,551
2020-05-08T11:40:36,42.805,6.029,CST-1368DR,6355,8909,15175,0.115,551
2020-05-08T11:43:38,42.805,6.029,CST-1368DR,6355,8909,15175,0.115,551
2020-05-08T11:46:40,42.805,6.029,CST-1368DR,6355,8908,15174,0.115,551
2020-05-08T11:49:41,42.805,6.029,CST-1368DR,6355,8908,15175,0.115,550
2020-05-08T11:52:43,42.805,6.029,CST-1368DR,6355,8909,15175,0.115,551
2020-05-08T11:55:45,42.805,6.029,CST-1368DR,6355,8908,15175,0.115,551
2020-05-08T11:58:46,42.805,6.029,CST-1368DR,6355,8908,15175,0.115,551
2020-05-08T12:01:48,42.805,6.029,CST-1368DR,6354,8908,15177,0.114,551
2020-05-08T12:04:50,42.805,6.029,CST-1368DR,6355,8909,15175,0.115,551
2020-05-08T12:07:51,42.805,6.029,CST-1368DR,6354,8908,15176,0.114,551
2020-05-08T12:10:53,42.805,6.029,CST-1368DR,6354,8908,15176,0.114,551
2020-05-08T12:13:55,42.805,6.029,CST-1368DR,6354,8908,15177,0.114,551
2020-05-08T12:16:56,42.805,6.029,CST-1368DR,6354,8907,15175,0.115,551
2020-05-08T12:19:58,42.805,6.029,CST-1368DR,6354,8908,15176,0.114,551
2020-05-08T12:23:00,42.805,6.029,CST-1368DR,6355,8907,15173,0.115,551
2020-05-08T12:26:01,42.805,6.029,CST-1368DR,6354,8908,15176,0.114,551
2020-05-08T12:29:03,42.805,6.029,CST-1368DR,6354,8908,15176,0.114,551
2020-05-08T12:32:05,42.805,6.029,CST-1368DR,6354,8908,15176,0.114,551
2020-05-08T12:35:07,42.805,6.029,CST-1368DR,6354,8908,15176,0.114,551
2020-05-08T12:38:08,42.805,6.029,CST-1368DR,6354,8908,15176,0.114,551
2020-05-08T12:41:10,42.805,6.029,CST-1368DR,6354,8907,15174,0.115,551
2020-05-08T12:44:12,42.805,6.029,CST-1368DR,6354,8908,15176,0.114,551
2020-05-08T12:47:14,42.805,6.029,CST-1368DR,6354,8907,15174,0.115,551
2020-05-08T12:50:15,42.805,6.029,CST-1368DR,6354,8907,15174,0.115,551
2020-05-08T12:53:17,42.805,6.029,CST-1368DR,6354,8907,15174,0.115,551
2020-05-08T12:56:19,42.805,6.029,CST-1368DR,6354,8908,15176,0.114,551
2020-05-08T12:59:20,42.805,6.029,CST-1368DR,6354,8908,15176,0.114,551
2020-05-08T13:02:22,42.805,6.029,CST-1368DR,6354,8907,15175,0.115,551
2020-05-08T13:05:24,42.805,6.029,CST-1368DR,6354,8907,15174,0.115,551
2020-05-08T13:08:25,42.805,6.029,CST-1368DR,6354,8907,15175,0.115,551
2020-05-08T13:11:27,42.805,6.029,CST-1368DR,6354,8908,15176,0.114,551
2020-05-08T13:14:29,42.805,6.029,CST-1368DR,6354,8907,15175,0.115,551
2020-05-08T13:17:30,42.805,6.029,CST-1368DR,6354,8906,15173,0.115,551
2020-05-08T13:20:32,42.805,6.029,CST-1368DR,6354,8907,15175,0.115,551
2020-05-08T13:23:34,42.805,6.029,CST-1368DR,6354,8907,15174,0.115,550
2020-05-08T13:26:36,42.805,6.029,CST-1368DR,6354,8908,15176,0.114,551
2020-05-08T13:29:37,42.805,6.029,CST-1368DR,6354,8908,15176,0.114,551
2020-05-08T13:32:39,42.805,6.029,CST-1368DR,6354,8907,15174,0.115,551
2020-05-08T13:35:41,42.805,6.029,CST-1368DR,6354,8907,15174,0.115,551
2020-05-08T13:38:42,42.805,6.029,CST-1368DR,6354,8907,15174,0.115,551
2020-05-08T13:41:44,42.805,6.029,CST-1368DR,6354,8907,15175,0.115,551
2020-05-08T13:44:46,42.805,6.029,CST-1368DR,6354,8908,15176,0.114,551
2020-05-08T13:47:47,42.805,6.029,CST-1368DR,6354,8906,15173,0.115,551
2020-05-08T13:50:49,42.805,6.029,CST-1368DR,6354,8907,15174,0.115,551
2020-05-08T13:53:51,42.805,6.029,CST-1368DR,6354,8908,15176,0.114,551
2020-05-08T13:56:52,42.805,6.029,CST-1368DR,6354,8908,15176,0.114,551
2020-05-08T13:59:54,42.805,6.029,CST-1368DR,6354,8907,15175,0.115,551
2020-05-08T14:02:56,42.805,6.029,CST-1368DR,6354,8900,15163,0.118,551
2020-05-08T14:05:57,42.805,6.029,CST-1368DR,6354,8907,15175,0.115,551
2020-05-08T14:08:59,42.805,6.029,CST-1368DR,6354,8908,15176,0.114,551
2020-05-08T14:12:01,42.805,6.029,CST-1368DR,6354,8907,15175,0.115,551
2020-05-08T14:15:03,42.805,6.029,CST-1368DR,6354,8906,15173,0.115,551
2020-05-08T14:18:04,42.805,6.029,CST-1368DR,6354,8906,15173,0.115,550
2020-05-08T14:21:06,42.805,6.029,CST-1368DR,6354,8906,15173,0.115,551
2020-05-08T14:24:08,42.805,6.029,CST-1368DR,6354,8905,15171,0.116,551
2020-05-08T14:27:09,42.805,6.029,CST-1368DR,6354,8907,15174,0.115,551
2020-05-08T14:30:11,42.805,6.029,CST-1368DR,6354,8907,15174,0.115,551
2020-05-08T14:33:13,42.805,6.029,CST-1368DR,6354,8906,15173,0.115,551
2020-05-08T14:36:15,42.805,6.029,CST-1368DR,6354,8907,15174,0.115,551
2020-05-08T14:39:16,42.805,6.029,CST-1368DR,6354,8907,15174,0.115,551
2020-05-08T14:42:18,42.805,6.029,CST-1368DR,6354,8907,15174,0.115,551
2020-05-08T14:45:20,42.805,6.029,CST-1368DR,6354,8905,15171,0.116,551
2020-05-08T14:48:21,42.805,6.029,CST-1368DR,6354,8907,15174,0.115,551
2020-05-08T14:51:23,42.805,6.029,CST-1368DR,6354,8907,15175,0.115,551
2020-05-08T14:54:25,42.805,6.029,CST-1368DR,6354,8907,15175,0.115,550
2020-05-08T14:57:26,42.805,6.029,CST-1368DR,6354,8908,15176,0.114,551
2020-05-08T15:00:28,42.805,6.029,CST-1368DR,6354,8907,15174,0.115,551
2020-05-08T15:03:30,42.805,6.029,CST-1368DR,6354,8907,15174,0.115,551
2020-05-08T15:06:31,42.805,6.029,CST-1368DR,6354,8906,15172,0.115,551
2020-05-08T15:09:33,42.805,6.029,CST-1368DR,6354,8907,15175,0.115,551
2020-05-08T15:12:35,42.805,6.029,CST-1368DR,6354,8906,15173,0.115,551
2020-05-08T15:15:37,42.805,6.029,CST-1368DR,6354,8907,15174,0.115,551
2020-05-08T15:18:38,42.805,6.029,CST-1368DR,6354,8907,15174,0.115,551
2020-05-08T15:21:40,42.805,6.029,CST-1368DR,6354,8905,15172,0.115,551
2020-05-08T15:24:42,42.805,6.029,CST-1368DR,6354,8907,15174,0.115,551
2020-05-08T15:27:43,42.805,6.029,CST-1368DR,6354,8907,15175,0.115,551
2020-05-08T15:30:45,42.805,6.029,CST-1368DR,6354,8906,15173,0.115,551
2020-05-08T15:33:47,42.805,6.029,CST-1368DR,6354,8906,15173,0.115,551
2020-05-08T15:36:48,42.805,6.029,CST-1368DR,6354,8906,15173,0.115,551
2020-05-08T15:39:50,42.805,6.029,CST-1368DR,6354,8907,15174,0.115,551
2020-05-08T15:42:52,42.805,6.029,CST-1368DR,6354,8905,15172,0.115,550
2020-05-08T15:45:53,42.805,6.029,CST-1368DR,6354,8905,15171,0.116,551
2020-05-08T15:48:55,42.805,6.029,CST-1368DR,6354,8906,15173,0.115,551
2020-05-08T15:51:57,42.805,6.029,CST-1368DR,6354,8907,15174,0.115,551
2020-05-08T15:54:59,42.805,6.029,CST-1368DR,6354,8904,15170,0.116,550
2020-05-08T15:58:00,42.805,6.029,CST-1368DR,6354,8907,15174,0.115,551
2020-05-08T16:01:02,42.805,6.029,CST-1368DR,6354,8905,15170,0.116,551
2020-05-08T16:04:04,42.805,6.029,CST-1368DR,6354,8906,15172,0.115,551
2020-05-08T16:07:06,42.805,6.029,CST-1368DR,6354,8907,15175,0.115,551
2020-05-08T16:10:07,42.805,6.029,CST-1368DR,6354,8907,15174,0.115,551
2020-05-08T16:13:09,42.805,6.029,CST-1368DR,6354,8907,15174,0.115,551
2020-05-08T16:16:11,42.805,6.029,CST-1368DR,6354,8904,15169,0.116,551
2020-05-08T16:19:13,42.805,6.029,CST-1368DR,6354,8906,15173,0.115,551
2020-05-08T16:22:14,42.805,6.029,CST-1368DR,6354,8906,15173,0.115,551
2020-05-08T16:25:16,42.805,6.029,CST-1368DR,6354,8901,15165,0.117,551
2020-05-08T16:28:18,42.805,6.029,CST-1368DR,6354,8906,15173,0.115,551
2020-05-08T16:31:20,42.805,6.029,CST-1368DR,6354,8905,15171,0.116,551
2020-05-08T16:34:21,42.805,6.029,CST-1368DR,6354,8907,15174,0.115,551
2020-05-08T16:37:23,42.805,6.029,CST-1368DR,6354,8907,15174,0.115,551
2020-05-08T16:40:25,42.805,6.029,CST-1368DR,6354,8907,15174,0.115,551
2020-05-08T16:43:26,42.805,6.029,CST-1368DR,6354,8904,15170,0.116,551
2020-05-08T16:46:28,42.805,6.029,CST-1368DR,6354,8906,15172,0.115,551
2020-05-08T16:49:30,42.805,6.029,CST-1368DR,6354,8905,15171,0.116,551
2020-05-08T16:52:31,42.805,6.029,CST-1368DR,6354,8907,15174,0.115,551